Moose Lake, MN

1:37 AM CDT on October 18, 2017 (GMT -0500)
Moose Lake-Carlton County

Weather History for KMZH - May, 2013

Change the Weather History Date:

Monday, May 27, 2013

  Actual Average Record
Temperature  
Mean Temperature 50 °F -  
Max Temperature 62 °F 71 °F 87 °F (1969)
Min Temperature 39 °F 40 °F 29 °F (1984)
Degree Days  
Heating Degree Days 14    
Moisture  
Dew Point 30 °F    
Average Humidity 49    
Maximum Humidity 70    
Minimum Humidity 31    
Precipitation  
Precipitation 0.00 in - - ()
Sea Level Pressure  
Sea Level Pressure 29.98 in    
Wind  
Wind Speed 5 mph (NE)    
Max Wind Speed 9 mph    
Max Gust Speed -    
Visibility 10 miles    
Events      
Averages and records for this station are not official NWS values.
T = Trace of Precipitation, MM = Missing Value Source: NWS Daily Summary

Daily Weather History Graph

Daily Weather History Graph

Search for Another Location

Airport or City:

Trip Planner

Search our weather history database for the weather conditions in past years. The results will help you decide how hot, cold, wet, or windy it might be!

Date:

Astronomy

May. 27, 2013 Rise Set
Actual Time 5:25 AM CDT 8:51 PM CDT
Civil Twilight 4:48 AM CDT 9:29 PM CDT
Nautical Twilight 3:59 AM CDT 10:18 PM CDT
Astronomical Twilight 2:55 AM CDT 11:22 PM CDT
Moon 11:26 PM CDT (5/27) 8:06 AM CDT (5/27)
Length of Visible Light 16h 40m
Length of Day
15h 26m
Waning Gibbous, 91% of the Moon is Illuminated
May 27
Waning Gibbous
May 31
Last Quarter
Jun 8
New
Jun 16
First Quarter
Jun 23
Full

Hourly Weather History & Observations

Time (CDT) Temp. Windchill Dew Point Humidity Pressure Visibility Wind Dir Wind Speed Gust Speed Precip Events Conditions
12:13 AM 42.8 °F 40.1 °F 26.6 °F 53% 30.08 in 10.0 mi NE 4.6 mph - N/A   Scattered Clouds
12:33 AM 42.8 °F 40.1 °F 26.6 °F 53% 30.08 in 10.0 mi ENE 4.6 mph - N/A   Scattered Clouds
12:53 AM 42.8 °F 41.1 °F 26.6 °F 53% 30.08 in 10.0 mi ENE 3.5 mph - N/A   Scattered Clouds
1:13 AM 44.6 °F 43.1 °F 26.6 °F 49% 30.09 in 10.0 mi ENE 3.5 mph - N/A   Mostly Cloudy
1:33 AM 44.6 °F 42.2 °F 26.6 °F 49% 30.09 in 10.0 mi NE 4.6 mph - N/A   Overcast
1:53 AM 42.8 °F 40.1 °F 26.6 °F 53% 30.07 in 10.0 mi NE 4.6 mph - N/A   Overcast
2:13 AM 42.8 °F - 26.6 °F 53% 30.06 in 10.0 mi Calm Calm - N/A   Overcast
2:33 AM 42.8 °F 41.1 °F 26.6 °F 53% 30.06 in 10.0 mi NE 3.5 mph - N/A   Overcast
2:53 AM 42.8 °F 40.1 °F 28.4 °F 57% 30.06 in 10.0 mi ENE 4.6 mph - N/A   Overcast
3:13 AM 42.8 °F 40.1 °F 28.4 °F 57% 30.06 in 10.0 mi ENE 4.6 mph - N/A   Overcast
3:33 AM 42.8 °F 40.1 °F 28.4 °F 57% 30.06 in 10.0 mi NE 4.6 mph - N/A   Overcast
3:53 AM 41.0 °F 38.0 °F 30.2 °F 65% 30.05 in 10.0 mi NNE 4.6 mph - N/A   Mostly Cloudy
4:13 AM 41.0 °F 38.0 °F 30.2 °F 65% 30.05 in 10.0 mi NE 4.6 mph - N/A   Scattered Clouds
4:33 AM 39.2 °F 35.0 °F 30.2 °F 70% 30.04 in 10.0 mi NE 5.8 mph - N/A   Scattered Clouds
4:53 AM 39.2 °F 35.9 °F 30.2 °F 70% 30.04 in 10.0 mi NE 4.6 mph - N/A   Scattered Clouds
5:13 AM 41.0 °F 38.0 °F 30.2 °F 65% 30.05 in 10.0 mi NE 4.6 mph - N/A   Mostly Cloudy
5:33 AM 41.0 °F 38.0 °F 30.2 °F 65% 30.06 in 10.0 mi NE 4.6 mph - N/A   Overcast
5:53 AM 41.0 °F 38.0 °F 30.2 °F 65% 30.06 in 10.0 mi NE 4.6 mph - N/A   Overcast
6:13 AM 41.0 °F 39.0 °F 30.2 °F 65% 30.06 in 10.0 mi NE 3.5 mph - N/A   Overcast
6:33 AM 41.0 °F 38.0 °F 30.2 °F 65% 30.05 in 10.0 mi NE 4.6 mph - N/A   Overcast
6:53 AM 42.8 °F 41.1 °F 32.0 °F 66% 30.05 in 10.0 mi NE 3.5 mph - N/A   Overcast
7:13 AM 42.8 °F - 32.0 °F 66% 30.04 in 10.0 mi Calm Calm - N/A   Overcast
7:33 AM 42.8 °F 40.1 °F 32.0 °F 66% 30.04 in 10.0 mi NE 4.6 mph - N/A   Overcast
7:53 AM 42.8 °F 40.1 °F 32.0 °F 66% 30.03 in 10.0 mi NE 4.6 mph - N/A   Overcast
8:13 AM 42.8 °F 38.6 °F 32.0 °F 66% 30.03 in 10.0 mi NNE 6.9 mph - N/A   Overcast
8:33 AM 44.6 °F 41.4 °F 32.0 °F 61% 30.03 in 10.0 mi NE 5.8 mph - N/A   Overcast
8:53 AM 44.6 °F 41.4 °F 32.0 °F 61% 30.02 in 10.0 mi NE 5.8 mph - N/A   Overcast
9:13 AM 44.6 °F 41.4 °F 32.0 °F 61% 30.03 in 10.0 mi NE 5.8 mph - N/A   Overcast
9:33 AM 46.4 °F 42.9 °F 32.0 °F 57% 30.02 in 10.0 mi ENE 6.9 mph - N/A   Overcast
9:53 AM 46.4 °F 43.5 °F 32.0 °F 57% 30.02 in 10.0 mi ENE 5.8 mph - N/A   Overcast
10:13 AM 50.0 °F - 32.0 °F 50% 30.01 in 10.0 mi ENE 6.9 mph - N/A   Overcast
10:33 AM 50.0 °F - 32.0 °F 50% 30.00 in 10.0 mi ENE 8.1 mph - N/A   Overcast
10:53 AM 50.0 °F - 32.0 °F 50% 30.00 in 10.0 mi ENE 6.9 mph - N/A   Overcast
11:13 AM 51.8 °F - 32.0 °F 47% 29.99 in 10.0 mi NE 8.1 mph - N/A   Overcast
11:33 AM 53.6 °F - 32.0 °F 44% 29.98 in 10.0 mi ENE 6.9 mph - N/A   Overcast
11:53 AM 55.4 °F - 32.0 °F 41% 29.97 in 10.0 mi East 5.8 mph - N/A   Overcast
12:13 PM 57.2 °F - 32.0 °F 38% 29.96 in 10.0 mi East 5.8 mph - N/A   Overcast
12:33 PM 59.0 °F - 32.0 °F 36% 29.95 in 10.0 mi ENE 6.9 mph - N/A   Overcast
12:53 PM 60.8 °F - 32.0 °F 34% 29.94 in 10.0 mi ENE 8.1 mph - N/A   Mostly Cloudy
1:13 PM 60.8 °F - 32.0 °F 34% 29.93 in 10.0 mi ENE 8.1 mph - N/A   Overcast
1:33 PM 62.6 °F - 32.0 °F 32% 29.93 in 10.0 mi East 4.6 mph - N/A   Overcast
1:53 PM 60.8 °F - 32.0 °F 34% 29.93 in 10.0 mi ENE 8.1 mph - N/A   Overcast
2:13 PM 60.8 °F - 32.0 °F 34% 29.93 in 10.0 mi ENE 5.8 mph - N/A   Overcast
2:33 PM 60.8 °F - 32.0 °F 34% 29.93 in 10.0 mi East 4.6 mph - N/A   Overcast
2:53 PM 59.0 °F - 32.0 °F 36% 29.94 in 10.0 mi NE 5.8 mph - N/A   Overcast
3:13 PM 59.0 °F - 32.0 °F 36% 29.94 in 10.0 mi NNE 9.2 mph - N/A   Overcast
3:33 PM 59.0 °F - 32.0 °F 36% 29.94 in 10.0 mi ENE 6.9 mph - N/A   Overcast
3:53 PM 59.0 °F - 30.2 °F 34% 29.93 in 10.0 mi ENE 8.1 mph - N/A   Overcast
4:13 PM 59.0 °F - 28.4 °F 31% 29.92 in 10.0 mi ENE 8.1 mph - N/A   Overcast
4:33 PM 59.0 °F - 30.2 °F 34% 29.92 in 10.0 mi ENE 9.2 mph - N/A   Overcast
4:53 PM 57.2 °F - 30.2 °F 36% 29.92 in 10.0 mi ENE 4.6 mph - N/A   Overcast
5:13 PM 57.2 °F - 28.4 °F 33% 29.92 in 10.0 mi NE 6.9 mph - N/A   Overcast
5:33 PM 55.4 °F - 28.4 °F 36% 29.92 in 10.0 mi NE 5.8 mph - N/A   Overcast
5:53 PM 55.4 °F - 30.2 °F 38% 29.91 in 10.0 mi NE 6.9 mph - N/A   Overcast
6:13 PM 53.6 °F - 30.2 °F 41% 29.90 in 10.0 mi ENE 4.6 mph - N/A   Overcast
6:33 PM 53.6 °F - 28.4 °F 38% 29.89 in 10.0 mi ENE 4.6 mph - N/A   Overcast
6:53 PM 53.6 °F - 28.4 °F 38% 29.89 in 10.0 mi ENE 6.9 mph - N/A   Overcast
7:13 PM 51.8 °F - 28.4 °F 41% 29.88 in 10.0 mi ENE 5.8 mph - N/A   Overcast
7:33 PM 51.8 °F - 28.4 °F 41% 29.88 in 10.0 mi NE 5.8 mph - N/A   Overcast
7:53 PM 51.8 °F - 28.4 °F 41% 29.88 in 10.0 mi ENE 3.5 mph - N/A   Overcast
8:13 PM 51.8 °F - 28.4 °F 41% 29.89 in 10.0 mi NNE 5.8 mph - N/A   Overcast
8:33 PM 50.0 °F - 28.4 °F 43% 29.89 in 10.0 mi NE 4.6 mph - N/A   Overcast
8:53 PM 50.0 °F - 30.2 °F 47% 29.89 in 10.0 mi Calm Calm - N/A   Overcast
9:13 PM 50.0 °F - 30.2 °F 47% 29.90 in 10.0 mi NE 3.5 mph - N/A   Overcast
9:33 PM 50.0 °F - 30.2 °F 47% 29.89 in 10.0 mi ENE 4.6 mph - N/A   Overcast
9:53 PM 50.0 °F - 28.4 °F 43% 29.89 in 10.0 mi ENE 4.6 mph - N/A   Overcast
10:13 PM 50.0 °F - 30.2 °F 47% 29.90 in 10.0 mi ENE 3.5 mph - N/A   Overcast
10:33 PM 50.0 °F - 30.2 °F 47% 29.89 in 10.0 mi ENE 3.5 mph - N/A   Overcast
10:53 PM 50.0 °F - 30.2 °F 47% 29.89 in 10.0 mi ENE 3.5 mph - N/A   Overcast
11:13 PM 48.2 °F - 30.2 °F 50% 29.89 in 10.0 mi ENE 4.6 mph - N/A   Overcast
11:33 PM 48.2 °F - 30.2 °F 50% 29.87 in 10.0 mi ENE 3.5 mph - N/A   Overcast
11:53 PM 46.4 °F 45.2 °F 30.2 °F 53% 29.87 in 10.0 mi NE 3.5 mph - N/A   Overcast